[[{"header":{"parameterUnit":"m.s-1","parameterCategory":1,"la1":30.2991,"la2":30.254,"lo1":-89.0895,"lo2":-89.0444,"dy":0.0017,"dx":0.0017,"nx":28,"ny":28,"refTime":"2023-09-04T21:00:00:Z","depth":0,"parameterNumber":2,"parameterNumberName":"U-component_of_WINDS"},"data":[0,0,0,0,0,0,0,0,0,0,0,0,0,0,0,0,0,0,0,0,0,0,0,0,0,0,0,0,0,0,0,0,0,0,0,0,0,0,0,0,0,0,0,0,0,0,0,0,0,0,0,0,0,0,0,0,0,0,-3.5162,-3.5162,0,-3.5135,-3.5135,-3.5135,-3.5088,-3.5087,-3.5086,-3.5085,-3.5058,-3.5058,-3.5058,0,0,0,0,0,0,0,0,0,0,0,0,0,-3.5173,-3.5173,-3.5162,-3.5162,-3.5161,-3.5135,-3.5135,-3.5135,-3.5088,-3.5087,-3.5086,-3.5085,-3.5058,-3.5058,-3.5058,0,0,0,0,0,0,0,0,0,0,0,0,0,-3.516,-3.5173,-3.5162,-3.5135,-3.5132,-3.5135,-3.5135,-3.5135,-3.5088,-3.5087,-3.5086,-3.5084,-3.5058,-3.5058,-3.5058,-3.5086,0,0,-3.5059,-3.5059,0,0,0,0,0,0,0,0,-3.516,-3.5159,-3.5139,-3.5137,-3.5134,-3.5114,-3.5129,-3.5118,-3.5089,-3.5105,-3.5085,-3.5084,-3.5078,-3.5076,-3.5074,-3.5085,-3.5083,-3.5059,-3.5059,-3.5059,-3.5059,0,0,0,0,0,0,0,-3.5161,-3.516,-3.5151,-3.5139,-3.5136,-3.5124,-3.5121,-3.5127,-3.5099,-3.5103,-3.51,-3.5098,-3.5076,-3.5074,-3.5073,-3.5083,-3.5059,-3.5059,-3.5059,-3.5059,-3.5115,-3.5117,0,0,0,0,0,0,-3.5166,-3.5161,-3.5152,-3.5151,-3.5144,-3.5125,-3.5121,-3.5121,-3.5099,-3.5094,-3.5099,-3.5095,-3.5074,-3.5073,-3.5072,-3.5102,-3.5059,-3.5059,-3.5059,-3.5114,-3.5116,-3.5117,0,0,0,0,0,0,-3.5167,-3.5166,-3.5153,-3.5155,-3.5152,-3.5126,-3.5127,-3.5122,-3.512,-3.5095,-3.509,-3.5102,-3.5073,-3.5072,-3.5083,-3.5101,-3.5059,-3.5059,-3.5112,-3.5115,-3.5117,-3.5164,0,0,0,0,0,0,-3.5167,-3.5166,-3.5176,-3.5156,-3.5153,-3.5164,-3.5128,-3.5122,-3.512,-3.5115,-3.5097,-3.5092,-3.5072,-3.5083,-3.5083,-3.51,-3.5059,-3.5111,-3.5113,-3.5116,-3.516,-3.5167,-3.5173,0,0,0,0,0,-3.5168,-3.519,-3.5177,-3.5176,-3.5164,-3.5165,-3.5164,-3.514,-3.5122,-3.5131,-3.5116,-3.5093,-3.5099,-3.5084,-3.5084,-3.5102,-3.5109,-3.5113,-3.5116,-3.5157,-3.5166,-3.5173,0,0,0,0,0,0,-3.5213,-3.5187,-3.5172,-3.5188,-3.518,-3.5158,-3.5169,-3.515,-3.5146,-3.5142,-3.5112,-3.5109,-3.5124,-3.5114,-3.5098,-3.5128,-3.5101,-3.5104,-3.5133,-3.514,-3.5147,-3.5148,-3.506,0,0,0,0,0,-3.5225,-3.5228,-3.5205,-3.5222,-3.5219,-3.5195,-3.5195,-3.5177,-3.5167,-3.5163,-3.5148,-3.5139,-3.5139,-3.514,-3.5138,-3.516,-3.5155,-3.5172,-3.5178,-3.5183,-3.5186,-3.5196,-3.5204,-3.5128,-3.5128,-3.5128,0,0,-3.525,-3.5236,-3.524,-3.5231,-3.5222,-3.5226,-3.5192,-3.5197,-3.52,-3.5164,-3.5173,-3.5162,-3.5151,-3.5167,-3.5173,-3.5159,-3.5206,-3.5187,-3.5192,-3.5191,-3.52,-3.5208,-3.5214,-3.513,-3.5129,-3.5129,0,0,-3.5296,-3.5287,-3.5299,-3.5292,-3.5279,-3.5263,-3.5267,-3.5248,-3.5239,-3.5249,-3.5222,-3.5225,-3.5225,-3.5218,-3.5214,-3.526,-3.5239,-3.5261,-3.5293,-3.5304,-3.531,-3.5315,-3.533,-3.5337,-3.5264,-3.5264,-3.5264,0,-3.5328,-3.5333,-3.5308,-3.5316,-3.5313,-3.5281,-3.5294,-3.5288,-3.5275,-3.5274,-3.5259,-3.526,-3.5249,-3.5264,-3.5275,-3.5274,-3.5276,-3.5262,-3.5311,-3.5316,-3.532,-3.5335,-3.5341,-3.5267,-3.5267,-3.5266,-3.5266,0,-3.5373,-3.5377,-3.5389,-3.5378,-3.5376,-3.5387,-3.5364,-3.5366,-3.535,-3.5336,-3.5346,-3.5333,-3.5329,-3.5331,-3.5315,-3.5344,-3.5335,-3.5316,-3.5288,-3.533,-3.5344,-3.5349,-3.5271,-3.527,-3.5269,-3.5268,0,0,-3.5445,-3.5421,-3.5426,-3.5421,-3.5405,-3.5408,-3.5418,-3.5413,-3.5415,-3.5409,-3.5415,-3.5418,-3.54,-3.5396,-3.5379,-3.5389,-3.5426,-3.5369,-3.5368,-3.5379,-3.5456,-3.5469,-3.5476,-3.5413,-3.5414,-3.5415,-3.5457,0,-3.5487,-3.5501,-3.548,-3.5499,-3.5502,-3.5473,-3.5481,-3.5473,-3.5461,-3.5462,-3.5449,-3.5451,-3.5428,-3.5425,-3.5434,-3.542,-3.5441,-3.5417,-3.5418,-3.5419,-3.542,-3.5483,-3.5497,-3.5537,-3.5462,-3.5463,-3.5463,0,-3.5537,-3.5533,-3.5552,-3.5536,-3.5537,-3.5544,-3.5539,-3.5541,-3.5532,-3.5522,-3.5519,-3.5499,-3.5508,-3.5483,-3.5494,-3.5478,-3.5478,-3.5472,-3.5473,-3.547,-3.5442,-3.5481,-3.555,-3.5555,-3.5471,-3.5471,-3.547,0,-3.5586,-3.5586,-3.5597,-3.5594,-3.5576,-3.5582,-3.5575,-3.5564,-3.5563,-3.556,-3.5559,-3.5556,-3.5554,-3.5553,-3.5533,-3.5517,-3.5547,-3.552,-3.5539,-3.5539,-3.5545,-3.5544,-3.5613,-3.5548,-3.5548,-3.5548,-3.5547,0,-3.5635,-3.5647,-3.5619,-3.5626,-3.564,-3.5617,-3.5631,-3.5621,-3.5612,-3.5616,-3.5592,-3.5597,-3.5572,-3.5574,-3.5559,-3.557,-3.557,-3.5563,-3.5558,-3.5564,-3.5565,-3.5562,-3.5558,-3.5549,-3.5549,-3.5548,-3.5548,0,-3.5691,-3.5673,-3.5683,-3.5666,-3.5662,-3.5673,-3.5658,-3.5664,-3.5651,-3.5657,-3.5658,-3.5638,-3.5639,-3.562,-3.5618,-3.5608,-3.5626,-3.5618,-3.5629,-3.5626,-3.5645,-3.5643,-3.5713,-3.572,-3.5652,-3.5653,-3.5653,0,-3.5722,-3.5731,-3.5715,-3.5716,-3.5711,-3.5713,-3.5712,-3.5691,-3.5691,-3.5682,-3.5689,-3.5689,-3.5687,-3.5691,-3.5677,-3.5675,-3.5666,-3.569,-3.5665,-3.5671,-3.5665,-3.5664,-3.5664,-3.5695,-3.5696,-3.5696,-3.5697,0,-3.5779,-3.577,-3.5769,-3.5767,-3.5766,-3.5763,-3.5758,-3.5761,-3.5737,-3.5739,-3.574,-3.5739,-3.5738,-3.5738,-3.5734,-3.5727,-3.5708,-3.5705,-3.5709,-3.5714,-3.572,-3.5716,-3.5642,-3.5703,-3.5703,-3.5702,-3.5702,-3.5702,-3.5823,-3.5829,-3.5819,-3.582,-3.5814,-3.5811,-3.5815,-3.5804,-3.5804,-3.5801,-3.5789,-3.5793,-3.5784,-3.5777,-3.5772,-3.5775,-3.5763,-3.5769,-3.577,-3.5771,-3.5775,-3.5722,-3.5774,-3.5774,-3.5774,-3.5774,-3.5773,0,-3.5877,-3.587,-3.5871,-3.5865,-3.5866,-3.5849,-3.5843,-3.5845,-3.5848,-3.5842,-3.5841,-3.5843,-3.5844,-3.583,-3.5829,-3.5834,-3.5825,-3.5834,-3.5832,-3.5831,-3.5786,-3.5782,-3.5841,-3.5841,-3.5841,-3.5841,-3.5841,-3.5841,-3.5906,-3.5916,-3.5906,-3.5914,-3.5906,-3.591,-3.5908,-3.5904,-3.5899,-3.5902,-3.5903,-3.5894,-3.5885,-3.5883,-3.5883,-3.5879,-3.5879,-3.589,-3.5883,-3.5841,-3.5834,-3.5828,-3.5824,-3.5891,-3.5891,-3.5928,-3.5929,-3.5929]},{"header":{"parameterUnit":"m.s-1","parameterCategory":1,"la1":30.2991,"la2":30.254,"lo1":-89.0895,"lo2":-89.0444,"dy":0.0017,"dx":0.0017,"nx":28,"ny":28,"refTime":"2023-09-04T21:00:00:Z","depth":0,"parameterNumber":3,"parameterNumberName":"V-component_of_WINDS"},"data":[0,0,0,0,0,0,0,0,0,0,0,0,0,0,0,0,0,0,0,0,0,0,0,0,0,0,0,0,0,0,0,0,0,0,0,0,0,0,0,0,0,0,0,0,0,0,0,0,0,0,0,0,0,0,0,0,0,0,3.3414,3.3415,0,3.3426,3.3427,3.3427,3.3434,3.3434,3.3434,3.3434,3.3443,3.3444,3.3444,0,0,0,0,0,0,0,0,0,0,0,0,0,3.3397,3.3397,3.3414,3.3415,3.3415,3.3426,3.3427,3.3427,3.3434,3.3434,3.3434,3.3434,3.3443,3.3444,3.3444,0,0,0,0,0,0,0,0,0,0,0,0,0,3.3406,3.3397,3.3414,3.342,3.3421,3.3426,3.3427,3.3427,3.3434,3.3434,3.3434,3.3434,3.3443,3.3444,3.3444,3.3444,0,0,3.3445,3.3445,0,0,0,0,0,0,0,0,3.3406,3.3407,3.3419,3.342,3.342,3.3429,3.3424,3.3432,3.3434,3.3429,3.3434,3.3435,3.3438,3.3439,3.3441,3.3444,3.3445,3.3445,3.3445,3.3445,3.3445,0,0,0,0,0,0,0,3.3405,3.3406,3.3419,3.3419,3.342,3.3421,3.3423,3.3425,3.3433,3.3429,3.343,3.3432,3.3439,3.3441,3.3441,3.3445,3.3445,3.3445,3.3445,3.3445,3.345,3.345,0,0,0,0,0,0,3.3404,3.3406,3.3419,3.3419,3.3413,3.3422,3.3423,3.3426,3.3433,3.3434,3.3431,3.3432,3.344,3.3441,3.3442,3.3443,3.3445,3.3445,3.3446,3.3451,3.345,3.345,0,0,0,0,0,0,3.3403,3.3405,3.3418,3.3413,3.3415,3.3422,3.3425,3.3426,3.3428,3.3435,3.3436,3.3432,3.344,3.3441,3.3444,3.3443,3.3445,3.3446,3.3451,3.3451,3.345,3.3445,0,0,0,0,0,0,3.3403,3.3405,3.3405,3.3413,3.3415,3.3421,3.3425,3.3426,3.3429,3.343,3.3436,3.3437,3.344,3.3443,3.3444,3.3444,3.3446,3.3451,3.3451,3.345,3.3446,3.3445,3.3445,0,0,0,0,0,3.3402,3.3402,3.3405,3.3406,3.3416,3.3421,3.3422,3.3427,3.3429,3.3429,3.3434,3.3436,3.3444,3.3444,3.3445,3.3444,3.3451,3.3451,3.345,3.3446,3.3445,3.3445,0,0,0,0,0,0,3.3392,3.3403,3.3406,3.3409,3.3414,3.3422,3.3422,3.3426,3.343,3.343,3.3436,3.3437,3.3439,3.3442,3.3442,3.3446,3.3447,3.3448,3.3444,3.3443,3.3443,3.3442,3.3446,0,0,0,0,0,3.3391,3.3395,3.3404,3.3405,3.3408,3.3415,3.3417,3.3421,3.3426,3.3428,3.3432,3.3436,3.344,3.3442,3.3445,3.3446,3.3448,3.3447,3.3446,3.3446,3.3446,3.3448,3.3447,3.345,3.345,3.345,0,0,3.3387,3.3393,3.3395,3.3403,3.3408,3.3411,3.3416,3.3419,3.3422,3.3428,3.3431,3.3435,3.344,3.3442,3.3443,3.3444,3.3446,3.3446,3.3445,3.3445,3.3448,3.3447,3.3447,3.345,3.345,3.345,0,0,3.3382,3.3387,3.3389,3.3394,3.3402,3.3407,3.3407,3.3415,3.3418,3.3422,3.3427,3.343,3.3435,3.3439,3.3442,3.3441,3.3443,3.3441,3.3439,3.3441,3.3441,3.344,3.344,3.344,3.3441,3.3441,3.3441,0,3.3376,3.3382,3.339,3.3394,3.3397,3.3404,3.3407,3.3411,3.3418,3.3421,3.3422,3.343,3.3434,3.3438,3.3438,3.344,3.3441,3.344,3.344,3.344,3.344,3.344,3.344,3.3441,3.3441,3.3441,3.3441,0,3.3375,3.3379,3.338,3.3389,3.3393,3.3396,3.3404,3.3407,3.3411,3.3416,3.342,3.3425,3.343,3.3432,3.3435,3.3436,3.3437,3.3439,3.3441,3.3439,3.3439,3.3439,3.3441,3.3441,3.3441,3.3441,0,0,3.3362,3.3377,3.3377,3.3382,3.3392,3.3395,3.3399,3.3405,3.3408,3.3413,3.3416,3.3422,3.3425,3.3428,3.3432,3.3433,3.3433,3.3435,3.3436,3.3435,3.3435,3.3433,3.3433,3.3435,3.3435,3.3435,3.3435,0,3.3359,3.3367,3.3374,3.3379,3.3384,3.3392,3.3395,3.3401,3.3406,3.3411,3.3416,3.342,3.3423,3.3425,3.3427,3.3432,3.3433,3.3433,3.3438,3.3438,3.3436,3.3433,3.3431,3.343,3.3435,3.3435,3.3435,0,3.3355,3.3362,3.3368,3.3379,3.3381,3.3384,3.3391,3.3395,3.3402,3.3406,3.3411,3.3416,3.342,3.3422,3.3428,3.3428,3.343,3.3433,3.3434,3.3434,3.3436,3.3433,3.343,3.343,3.3435,3.3435,3.3435,0,3.3346,3.3357,3.3362,3.3366,3.3378,3.338,3.3385,3.3393,3.3397,3.3403,3.3406,3.3412,3.3415,3.3419,3.3426,3.3427,3.3431,3.3434,3.3434,3.3434,3.3434,3.3434,3.3431,3.3436,3.3436,3.3436,3.3436,0,3.3341,3.3344,3.3358,3.3361,3.3365,3.3375,3.3378,3.3384,3.3391,3.3395,3.3402,3.3406,3.3414,3.3419,3.3424,3.3428,3.343,3.3433,3.3434,3.3432,3.3432,3.3433,3.3433,3.3436,3.3436,3.3436,3.3436,0,3.3331,3.3341,3.3347,3.3359,3.3362,3.3365,3.3375,3.3378,3.3384,3.339,3.3391,3.3401,3.3407,3.3414,3.3422,3.3426,3.343,3.3432,3.3427,3.3428,3.3428,3.3428,3.3426,3.3427,3.3431,3.3431,3.3431,0,3.3327,3.333,3.3343,3.3348,3.3353,3.3359,3.3364,3.3373,3.3377,3.3387,3.3389,3.3396,3.3402,3.3412,3.3419,3.3425,3.3427,3.3426,3.3428,3.3426,3.3427,3.3427,3.3428,3.3425,3.3425,3.3425,3.3425,0,3.332,3.3325,3.3332,3.3341,3.3346,3.3353,3.3361,3.3363,3.3374,3.3379,3.3386,3.3391,3.34,3.3407,3.3415,3.3419,3.3424,3.3425,3.3425,3.3423,3.3421,3.3422,3.3426,3.3424,3.3425,3.3425,3.3425,3.3425,3.3313,3.3316,3.3327,3.3334,3.3341,3.3349,3.3353,3.3361,3.3367,3.3376,3.3381,3.3388,3.3397,3.3408,3.3413,3.3418,3.3419,3.342,3.342,3.342,3.342,3.342,3.3419,3.3419,3.3419,3.3419,3.3419,0,3.3306,3.3313,3.332,3.3331,3.3338,3.3343,3.3352,3.3357,3.3363,3.3371,3.3378,3.3387,3.3394,3.3402,3.341,3.3413,3.3415,3.3414,3.3414,3.3415,3.3418,3.3417,3.3412,3.3412,3.3412,3.3412,3.3412,3.3412,3.3303,3.3309,3.3316,3.3326,3.3334,3.3342,3.3346,3.3353,3.336,3.337,3.3376,3.3382,3.3391,3.3399,3.3406,3.3408,3.3411,3.341,3.3412,3.3414,3.3415,3.3415,3.3415,3.341,3.341,3.341,3.341,3.341]}]]